Погода в Канзас-Сити

США     39˚06′10″N   94˚37′33″W
темп.,
°C
ветер,
м/с
пор.,
м/с
влажн.,
%
обл.,
%
осадки,
мм/ч
давл.,
гПа
погр.,
м
5 декабря, сб
сб500:00+4˚зсз23720 0.0 102133
03:00+4˚зсз22710 0.0 102124
06:00+3˚з23730 0.0 102231
09:00+5˚сз23640 0.0 1023142
12:00+8˚ссз46540 0.0 1022455
15:00+9˚ссз47510 0.0 1020705
18:00+5˚ссз36660 0.0 1022201
21:00+3˚сз34720 0.0 1022118
6 декабря, вс
вс600:00+3˚сз357333 0.0 1021137
03:00+2˚сз357795 0.0 1020138
06:00+2˚ссз368448 0.0 1020150
09:00+3˚с48770 0.0 1021375
12:00+6˚с35630 0.0 1020776
15:00+7˚с45629 0.0 1019869
18:00+3˚с36826 0.0 1021217
21:00+2˚с23854 0.0 1021120
7 декабря, пн
пн700:00+1˚з23882 0.0 102166
03:00+1˚з24890 0.0 102192
06:00+1˚зюз34890 0.0 102183
09:00+4˚зюз35730 0.0 1021183
12:00+10˚з35510 0.0 1019422
15:00+12˚з36440 0.0 1016575
18:00+7˚з34600 0.0 101766
21:00+5˚зсз35610 0.0 101890
8 декабря, вт
вт800:00+4˚сз37600 0.0 1019157
03:00+3˚сз36620 0.0 1020153
06:00+2˚сз236516 0.0 102168
09:00+4˚зсз236144 0.0 1022128
12:00+10˚з344523 0.0 1021420
15:00+12˚зюз24420 0.0 1018531
18:00+8˚ююз355718 0.0 101884
21:00+6˚юз35610 0.0 1019109
9 декабря, ср
ср900:00+6˚юз48615 0.0 1018152
03:00+5˚юз48630 0.0 1017159
06:00+4˚юз48682 0.0 1017148
09:00+7˚юз48560 0.0 1017215
12:00+13˚юз58410 0.0 1016362
15:00+15˚юз47420 0.0 1014470
18:00+9˚ююз36610 0.0 1015111
21:00+8˚юз38710 0.0 1016170